Home   Weather   Jacksonville   Past weeks
Flag for USA

Past Weather in Jacksonville, North Carolina, USA — Yesterday and Last 2 Weeks

Now
66 °F

Light rain. Passing clouds.


Feels Like: 66 °F
Forecast: 80 / 64 °F
Wind: 6 mph from Southeast

Location: Jacksonville - New River

Current Time: Oct 14, 2019 at 4:57:14 am

Latest Report: Oct 14, 2019 at 3:56 am


Visibility: 10 mi

Pressure: 29.98 "Hg

Humidity: 96%

Dew Point: 65 °F

Location of JacksonvilleLocation

Past Weather in Jacksonville — Graph

°F

Jacksonville Temperature Yesterday

Maximum temperature yesterday: 82 °F (at 12:56 pm)
Minimum temperature yesterday: 61 °F (at 4:56 am)
Average temperature yesterday: 72 °F

High & Low Weather Summary for the Past Weeks

 TemperatureHumidityPressure
High94 °F (Sep 29, 2:56 pm)100% (Oct 8, 5:56 pm)30.27 "Hg (Oct 8, 5:56 pm)
Low51 °F (Oct 12, 5:56 am)32% (Oct 11, 2:56 pm)29.93 "Hg (Oct 8, 3:56 am)
Average72 °F75%30.08 "Hg
* Reported Sep 29 3:56 am — Oct 14 3:37 am, Jacksonville. Weather by CustomWeather, © 2019

Note: Actual official high and low records may vary slightly from our data, if they occured in-between our weather recording intervals... More about our weather records

Advertising

Jacksonville Weather History for the Previous 24 Hours

Scroll right to see more
 ConditionsComfort  
Time TempWeatherWind HumidityBarometerVisibility
3:37 am
Mon, Oct 14
66 °FThunderstorms. Passing clouds.5 mph96%29.98 "Hg10 mi
2:56 am66 °FStrong thunderstorms. Fog.8 mph96%29.99 "Hg5 mi
2:05 am66 °FThunderstorms. Fog.6 mph96%30.02 "Hg5 mi
1:56 am66 °FLight rain. Overcast.3 mph96%30.02 "Hg10 mi
12:56 am66 °FLight rain. Overcast.7 mph93%30.03 "Hg10 mi
12:34 am66 °FStrong thunderstorms. Fog.6 mph93%30.03 "Hg2 mi
11:56 pm
Sun, Oct 13
67 °FThunderstorms. Mostly cloudy.8 mph90%30.05 "Hg10 mi
11:22 pm69 °FThunderstorms. Overcast.15 mph90%30.06 "Hg7 mi
10:56 pm72 °FLight rain. Fog.7 mph91%30.06 "Hg6 mi
9:56 pm76 °FOvercast.8 mph72%30.03 "Hg10 mi
8:56 pm76 °FMostly cloudy.7 mph72%30.01 "Hg10 mi
7:56 pm74 °FClear.7 mph76%30.02 "Hg10 mi
6:56 pm75 °FPassing clouds.7 mph71%30.02 "Hg10 mi
5:56 pm77 °FSunny.8 mph64%30.01 "Hg10 mi
4:56 pm78 °FPassing clouds.9 mph60%30.02 "Hg10 mi
3:56 pm80 °FSunny.10 mph56%30.03 "Hg10 mi
2:56 pm82 °FScattered clouds.12 mph53%30.02 "Hg10 mi
1:56 pm82 °FScattered clouds.9 mph51%30.03 "Hg10 mi
12:56 pm82 °FSunny.13 mph48%30.06 "Hg10 mi
11:56 am80 °FSunny.7 mph52%30.07 "Hg10 mi
10:56 am77 °FPassing clouds.10 mph60%30.09 "Hg10 mi
9:56 am75 °FSunny.5 mph64%30.09 "Hg10 mi
8:56 am68 °FScattered clouds.3 mph82%30.09 "Hg8 mi
7:56 am63 °FFog.No wind93%30.08 "Hg4 mi
6:56 am62 °FFog.No wind93%30.06 "Hg5 mi
5:56 am61 °FClear.No wind93%30.06 "Hg7 mi
4:56 am61 °FClear.No wind90%30.04 "Hg10 mi
Weather by CustomWeather, © 2019

See weather overview